Location: Biltmore Gardens
(41.6070°N, 83.4666°W)
Time: 15:19:13
(UTC+00:00)

Meteor 2-4 Rocket - Pass Details

Date: 14 July 2020
Orbit: 799 x 908 km, 81.2° (Epoch: 12 August)

Event Time Altitude Azimuth Distance (km) Brightness Sun altitude
Rises 07:03:44 0° 352° (N) 3,547 7.9 -23.9°
Reaches altitude 10° 07:06:15 10° 355° (N) 2,599 7.1 -23.7°
Maximum altitude 07:12:11 71° 79° (E) 953 4.0 -23.3°
Enters shadow 07:14:40 36° 153° (SSE) 1,387 4.5 -23.1°
